Powrót do katalogu

FENGYUN 1A

AktywnyPogodaSSO
NORAD 19467·PAYLOAD·🇨🇳 China

Wystrzelony Sep 6, 1988 z Taiyuan Satellite Launch Center

Loading…

Następne Przeloty (najbliższe 24 godziny)

TLE

ŚwieżeSource: Space-Track

Epoka: Sep 14, 2026, 02:41 UTC

1 19467U 88080A   26257.11231402 -.00000216  00000-0 -10967-3 0  9994
2 19467  99.0167 309.7310 0015279  96.6811 263.6095 14.03552722946370

Śledź FENGYUN 1A w czasie rzeczywistym z AllMySat

Download on the App Store